Location: Napier
(39.4830°S, 176.9170°E)
Time: 23:38:18
(UTC+13:00)

Cosmos 2333 - Pass Details

Date: 24 January 2019
Orbit: 831 x 865 km, 70.9° (Epoch: 21 February)

Event Time Altitude Azimuth Distance (km) Brightness Sun altitude
Exits shadow 22:49:22 42° 39° (NE) 1,224 4.5 -21.0°
Maximum altitude 22:50:32 48° 73° (ENE) 1,127 4.5 -21.2°
Drops below altitude 10° 22:56:07 10° 146° (SE) 2,534 6.9 -21.8°
Sets 22:58:40 0° 151° (SSE) 3,476 7.7 -22.2°
